Regional Weather Roundup
Issued by NWS Little Rock, AR

Home | Current Version | Previous Version | Graphics & Text | Print | Product List | Glossary On
Versions: 1 2 3 4 5 6 7 8 9 10 11 12 13 14 15 16 17 18 19 20 21 22 23 24 25 26 27 28 29 30 31 32
000
ASUS44 KLZK 241205
RWRLZK

WEATHER ROUNDUP FOR ARKANSAS
NATIONAL WEATHER SERVICE LITTLE ROCK AR
700 AM CDT FRI MAR 24 2017

NOTE: "FAIR" INDICATES FEW OR NO CLOUDS BELOW 12,000 FEET WITH NO
SIGNIFICANT WEATHER AND/OR OBSTRUCTIONS TO VISIBILITY.

ARZ001-003-010-029-241300-
NORTHWEST ARKANSAS

CITY           SKY/WX    TMP DP  RH WIND       PRES   REMARKS
FAYETTEVILLE   PTCLDY    64  42  44 S15G21    29.91F
6HR MIN TEMP:  63; 6HR MAX TEMP:  70;

FORT SMITH     MOCLDY    68  45  43 SE8       29.95F
6HR MIN TEMP:  67; 6HR MAX TEMP:  75;

HARRISON       MOCLDY    65  49  56 S12G21    29.99R
6HR MIN TEMP:  65; 6HR MAX TEMP:  70;

BENTONVILLE    MOCLDY    64  37  36 S15G24    29.89F
6HR MIN TEMP:  63; 6HR MAX TEMP:  72;

ROGERS         MOCLDY    65  42  43 SE16G24   29.90F
6HR MIN TEMP:  65; 6HR MAX TEMP:  71;

SILOAM SPGS    CLOUDY    64  37  36 S18G25    29.88F
6HR MIN TEMP:  64; 6HR MAX TEMP:  70;

HIGHFILL       CLOUDY    63  40  42 S17       29.88F
6HR MIN TEMP:  61; 6HR MAX TEMP:  70;

SPRINGDALE     CLEAR     66  41  39 S12G25    29.93F
$$

ARZ004-005-016-241300-
NORTH CENTRAL ARKANSAS

CITY           SKY/WX    TMP DP  RH WIND       PRES   REMARKS
BATESVILLE     CLOUDY    64  55  72 S3        30.06R
6HR MIN TEMP:  64; 6HR MAX TEMP:  70;

FLIPPIN        MOCLDY    68  48  49 S7        29.98R
6HR MIN TEMP:  68; 6HR MAX TEMP:  72;

MTN HOME       PTCLDY    67  51  56 SW10      30.00R
6HR MIN TEMP:  66; 6HR MAX TEMP:  70;

$$

ARZ040-041-241300-
WEST CENTRAL ARKANSAS

CITY           SKY/WX    TMP DP  RH WIND       PRES   REMARKS
MENA           CLOUDY    64  59  82 CALM      30.02S
MOUNT IDA      MOCLDY    66  54  65 MISG      30.02R
6HR MIN TEMP:  66; 6HR MAX TEMP:  74;

$$

ARZ009-017-025-026-028-241300-
NORTHEAST ARKANSAS

CITY           SKY/WX    TMP DP  RH WIND       PRES   REMARKS
JONESBORO      MOCLDY    62  56  80 S14G20    30.05R
6HR MIN TEMP:  60; 6HR MAX TEMP:  63;

NEWPORT        MOCLDY    64  56  75 S18       30.05R
6HR MIN TEMP:  61; 6HR MAX TEMP:  66;

WALNUT RIDGE   CLOUDY    61  52  72 S10       30.06R
6HR MIN TEMP:  61; 6HR MAX TEMP:  64;

BLYTHEVILLE    PTCLDY    64  58  80 S17       30.09R
6HR MIN TEMP:  64; 6HR MAX TEMP:  67;

$$

ARZ022-023-033-042-044-241300-
CENTRAL ARKANSAS

CITY           SKY/WX    TMP DP  RH WIND       PRES   REMARKS
LITTLE ROCK    CLOUDY    65  60  84 S10       30.08R
6HR MIN TEMP:  63; 6HR MAX TEMP:  68;

N LITTLE ROCK    N/A     65  59  81 S6        30.08R
6HR MIN TEMP:  64; 6HR MAX TEMP:  69;

JACKSONVILLE   MOCLDY    64  58  81 CALM      30.08R
6HR MIN TEMP:  57; 6HR MAX TEMP:  67; 6HR PCP: TRACE;

CONWAY           N/A     66  57  72 S9G15     30.05R
SEARCY         MOCLDY    64  59  83 S13       30.09R
6HR MIN TEMP:  62; 6HR MAX TEMP:  67;

HOT SPRINGS    CLOUDY    66  58  75 SW10      30.07R
6HR MIN TEMP:  65; 6HR MAX TEMP:  72;

RUSSELLVILLE   CLOUDY    67  53  61 S13G24    30.03R
6HR MIN TEMP:  57; 6HR MAX TEMP:  70;

CLINTON        FAIR      66  57  72 S15G24    30.04R
$$

ARZ036-241300-
EAST ARKANSAS

CITY           SKY/WX    TMP DP  RH WIND       PRES   REMARKS
WEST MEMPHIS   CLOUDY    66  60  81 S18G24    30.08R
6HR MIN TEMP:  65; 6HR MAX TEMP:  69;

$$

ARZ050-053-066-070-073-241300-
SOUTHWEST ARKANSAS

CITY           SKY/WX    TMP DP  RH WIND       PRES   REMARKS
ARKADELPHIA    CLOUDY    64  59  83 SW6       30.07R
6HR MIN TEMP:  56; 6HR MAX TEMP:  66;

CAMDEN         CLOUDY    68  57  68 S8        30.07R
TEXARKANA      CLOUDY    64  59  83 S8        30.04S
6HR MIN TEMP:  64; 6HR MAX TEMP:  68;

EL DORADO      CLOUDY    66  61  84 S9        30.05R
6HR MIN TEMP:  62; 6HR MAX TEMP:  66;

DE QUEEN       CLOUDY    64  56  75 SE3       30.00S
6HR MIN TEMP:  63; 6HR MAX TEMP:  71;

$$

ARZ056-057-069-241300-
SOUTHEAST ARKANSAS

CITY           SKY/WX    TMP DP  RH WIND       PRES   REMARKS
PINE BLUFF     CLOUDY    66  60  81 S14       30.04R
6HR MIN TEMP:  65; 6HR MAX TEMP:  70;

STUTTGART      CLOUDY    64  52  63 SE18G24   30.06R
6HR MIN TEMP:  64; 6HR MAX TEMP:  68;

MONTICELLO       N/A     66  60  81 SE10      30.06R
6HR MIN TEMP:  65; 6HR MAX TEMP:  69;


$$






USA.gov is the U.S. government's official web portal to all federal, state and local government web resources and services.